Laredo, TX

4:02 PM CST en Noviembre 16, 2018 (GMT -0600)
Laredo International

Tiempo Historia de KLRD - Noviembre, 2018

Change the Weather History Date:

Viernes, Noviembre 9, 2018

  Actual Average Record
Temperature  
Temperatura media 63 ° F 68 ° F  
Temperatura máxima 72 ° F 79 ° F 95 ° F (1966)
Temperatura mínima 53 ° F 58 ° F 30 ° F (1913)
Degree Days  
Grados día de calefacción 2 2  
Month to date heating degree days 3 15  
Since 1 July heating degree days 55 27  
Cooling Degree Days 0 5  
Month to date cooling degree days 66 57  
Year to date cooling degree days 4585 4186  
Growing Degree Days 12 (Base 50)    
Moisture  
Punto de rocío 55 ° F    
Average Humidity 92    
Maximum Humidity 100    
Minimum Humidity 84    
Precipitación  
Precipitación 0.21 pul 0.04 pul 1.73 pul (1928)
Month to date precipitation 0.21 0.42  
Year to date precipitation 14.31 18.55  
Nieve  
Nieve 0.00 pul 0.00 pul - ()
Month to date snowfall 0.0 0.0  
Since 1 July snowfall 0.0 0.0  
Since 1 September snowfall 0.0 0.0  
Grosos de nieve 0.00 pul    
Presión al nivel del mar  
Presión al nivel del mar 30.19 pul    
Viento  
Velocidad del viento 14 mph (Norte)    
Velocidad máxima del viento 23 mph    
Max Gust Speed 32 mph    
Visibilidad 7 Millas    
Eventos Lluvia    
T = Trace of Precipitation, MM = Missing Value Source: NWS Daily Summary

Daily Weather History Graph

Daily Weather History Graph

Search for Another Location

Airport or City:

Astronomía

Nov. 09, 2018 Salida Puesta
Hora real 6:54 AM CST 5:48 PM CST
Crepúsculo civil 6:29 AM CST 6:13 PM CST
Crepúsculo náutico 6:01 AM CST 6:41 PM CST
Crepúsculo astronómico 5:34 AM CST 7:08 PM CST
Luna 8:41 AM CST (11/9) 7:40 PM CST (11/9)
Horas de luz 11h 43m
Horas de luz
10h 54m
Creciente, 5% of the Moon is Illuminated
Nov 9
Creciente
Nov 15
Cuarto creciente
Nov 22
Luna llena
Nov 29
Cuarto menguante
Dic 7
Nueva

Hourly Weather History & Observations

Hora (CST) Temp. Punto de rocío Humedad Presión Visibilidad Wind Dir Velocidad del viento Velocidad de ráfagas Precip Eventos Condiciones
12:28 AM 71.6 ° F 68.0 ° F 88% 29.92 pul 8.0 mi Norte 6.9 mph - N/A   Nublado
12:56 AM 71.1 ° F 66.9 ° F 87% 29.95 pul 8.0 mi Norte 9.2 mph - N/A   Nublado
1:36 AM 69.8 ° F 66.2 ° F 88% 29.93 pul 6.0 mi NNE 11.5 mph - N/A   Nublado
1:56 AM 70.0 ° F 66.0 ° F 87% 29.96 pul 7.0 mi NNE 13.8 mph - N/A   Nublado
2:15 AM 69.8 ° F 66.2 ° F 88% 29.94 pul 4.0 mi NNE 12.7 mph - N/A   Nublado
2:56 AM 66.9 ° F 64.9 ° F 93% 29.97 pul 4.0 mi NNE 15.0 mph - N/A   Nublado
3:47 AM 64.4 ° F 62.6 ° F 94% 29.97 pul 2.5 mi NNE 17.3 mph 23.0 mph 0.00 pul Lluvia Lluvia débil
3:56 AM 63.0 ° F 62.1 ° F 97% 30.00 pul 2.5 mi Norte 20.7 mph - 0.01 pul Lluvia Lluvia débil
4:18 AM 62.6 ° F 60.8 ° F 94% 29.98 pul 3.0 mi NNE 18.4 mph 26.5 mph 0.00 pul Lluvia Lluvia débil
4:56 AM 60.1 ° F 59.0 ° F 96% 30.04 pul 8.0 mi NNE 15.0 mph - 0.00 pul Lluvia Lluvia débil
5:56 AM 57.9 ° F 55.9 ° F 93% 30.07 pul 10.0 mi NNE 19.6 mph 27.6 mph 0.00 pul Lluvia Lluvia débil
6:56 AM 57.9 ° F 55.9 ° F 93% 30.12 pul 10.0 mi Norte 18.4 mph 27.6 mph 0.01 pul Lluvia Lluvia débil
7:56 AM 55.0 ° F 54.0 ° F 96% 30.17 pul 4.0 mi Norte 23.0 mph 29.9 mph 0.04 pul Lluvia Lluvia
8:17 AM 55.4 ° F 53.6 ° F 94% 30.14 pul 10.0 mi Norte 23.0 mph 28.8 mph 0.07 pul Lluvia Lluvia débil
8:45 AM 55.4 ° F 53.6 ° F 94% 30.16 pul 7.0 mi NNE 20.7 mph 27.6 mph 0.11 pul Lluvia Lluvia
8:56 AM 55.0 ° F 53.1 ° F 93% 30.21 pul 10.0 mi NNE 16.1 mph 29.9 mph 0.12 pul Lluvia Lluvia débil
9:04 AM 55.4 ° F 53.6 ° F 94% 30.17 pul 10.0 mi NNE 15.0 mph - 0.00 pul Lluvia Lluvia débil
9:29 AM 55.4 ° F 53.6 ° F 94% 30.18 pul 8.0 mi Norte 15.0 mph - 0.00 pul Lluvia Lluvia débil
9:56 AM 55.9 ° F 54.0 ° F 93% 30.24 pul 9.0 mi Norte 13.8 mph - 0.01 pul Lluvia Lluvia débil
10:05 AM 55.4 ° F 53.6 ° F 94% 30.21 pul 10.0 mi Norte 13.8 mph 23.0 mph 0.00 pul Lluvia Lluvia débil
10:28 AM 55.4 ° F 53.6 ° F 94% 30.21 pul 2.5 mi Norte 12.7 mph - 0.00 pul Lluvia Lluvia débil
10:33 AM 55.4 ° F 53.6 ° F 94% 30.21 pul 1.8 mi Norte 16.1 mph 21.9 mph 0.00 pul Lluvia Lluvia débil
10:51 AM 55.4 ° F 53.6 ° F 94% 30.21 pul 3.0 mi NNE 17.3 mph - 0.00 pul Lluvia Lluvia débil
10:56 AM 55.0 ° F 53.1 ° F 93% 30.26 pul 4.0 mi Norte 13.8 mph - 0.00 pul Lluvia Lluvia débil
11:15 AM 55.4 ° F 53.6 ° F 94% 30.22 pul 2.0 mi Norte 13.8 mph - 0.01 pul Lluvia Lluvia débil
11:41 AM 55.4 ° F 53.6 ° F 94% 30.23 pul 4.0 mi NNE 15.0 mph - 0.01 pul Lluvia Lluvia débil
11:56 AM 55.0 ° F 53.1 ° F 93% 30.27 pul 5.0 mi Norte 12.7 mph - 0.01 pul Lluvia Lluvia débil
12:12 PM 55.4 ° F 53.6 ° F 94% 30.23 pul 2.0 mi Norte 11.5 mph - 0.00 pul Lluvia Lluvia débil
12:31 PM 55.4 ° F 53.6 ° F 94% 30.23 pul 4.0 mi Norte 9.2 mph - 0.00 pul Lluvia Lluvia débil
12:56 PM 54.0 ° F 53.1 ° F 97% 30.26 pul 3.0 mi NNO 13.8 mph - 0.00 pul Lluvia Lluvia débil
1:30 PM 55.4 ° F 51.8 ° F 88% 30.21 pul 10.0 mi Norte 13.8 mph - 0.00 pul   Nublado
1:39 PM 55.4 ° F 51.8 ° F 88% 30.22 pul 10.0 mi Norte 11.5 mph - 0.00 pul   Nublado
1:56 PM 55.0 ° F 52.0 ° F 89% 30.26 pul 10.0 mi Norte 10.4 mph - 0.00 pul   Nublado
2:42 PM 55.4 ° F 51.8 ° F 88% 30.22 pul 7.0 mi Norte 13.8 mph - N/A   Nublado
2:56 PM 55.0 ° F 53.1 ° F 93% 30.26 pul 5.0 mi Norte 10.4 mph - 0.00 pul Lluvia Lluvia débil
3:11 PM 55.4 ° F 53.6 ° F 94% 30.22 pul 5.0 mi NNE 13.8 mph - 0.00 pul Lluvia Lluvia débil
3:35 PM 53.6 ° F 51.8 ° F 94% 30.23 pul 10.0 mi Norte 18.4 mph - 0.01 pul Lluvia Lluvia débil
3:56 PM 54.0 ° F 52.0 ° F 93% 30.28 pul 10.0 mi Norte 13.8 mph - 0.01 pul Lluvia Lluvia débil
4:56 PM 54.0 ° F 51.1 ° F 90% 30.31 pul 10.0 mi Norte 10.4 mph - 0.00 pul   Nublado
5:03 PM 53.6 ° F 51.8 ° F 94% 30.26 pul 10.0 mi Norte 11.5 mph - 0.00 pul Lluvia Lluvia débil
5:24 PM 53.6 ° F 51.8 ° F 94% 30.27 pul 10.0 mi Norte 9.2 mph - 0.00 pul Lluvia Lluvia débil
5:56 PM 54.0 ° F 51.1 ° F 90% 30.33 pul 10.0 mi NNO 9.2 mph - 0.00 pul   Nublado
6:56 PM 54.0 ° F 50.0 ° F 86% 30.35 pul 10.0 mi NNO 9.2 mph - N/A   Nublado
7:56 PM 55.0 ° F 48.9 ° F 80% 30.38 pul 10.0 mi NNO 12.7 mph - 0.00 pul Lluvia Lluvia débil
8:56 PM 55.0 ° F 48.0 ° F 77% 30.40 pul 10.0 mi NNO 12.7 mph - 0.00 pul   Nublado
9:56 PM 54.0 ° F 48.0 ° F 80% 30.42 pul 10.0 mi NNO 9.2 mph - 0.00 pul Lluvia Lluvia débil
10:56 PM 54.0 ° F 48.9 ° F 83% 30.43 pul 10.0 mi NO 10.4 mph - 0.00 pul   Nublado
11:56 PM 55.0 ° F 50.0 ° F 83% 30.43 pul 10.0 mi ONO 6.9 mph - N/A   Nublado